Wind_Speed
26 27 26 26 24 23 21 20 19 17 17 17 18 19 20 20 19 19 18 17 16 14 13 13 13 13 12 12 13 13 13 13 12 12 13 13 14 14 15 18 21 23 25 24 23 21 20 20 20 19 19 18 18 18 18 17 18 18 17 17 16 16 16 17 16 16 16 15 15 14 14 15 15 16 17 16 17 15 14 14 13 14 14 12 11
29 28 28 27 25 23 21 20 19 17 16 17 18 19 20 19 18 18 17 16 16 15 14 14 14 13 13 14 13 13 13 12 12 13 14 13 14 14 15 17 20 23 24 24 23 22 21 21 20 20 19 19 19 18 18 18 18 18 17 17 16 16 16 17 17 17 16 15 15 15 15 15 14 15 16 16 16 15 14 13 12 12 12 11 9
31 30 28 27 25 23 21 20 19 17 16 17 18 19 18 17 17 17 17 16 16 16 15 15 14 14 14 14 13 13 13 13 13 13 13 13 14 14 14 16 19 22 23 24 23 22 22 22 21 20 20 20 19 19 19 18 17 17 17 17 17 17 16 16 17 17 16 16 15 15 16 16 15 15 15 14 13 13 12 12 11 10 10 9 8
30 30 29 27 25 23 21 20 19 17 16 17 18 18 17 17 17 17 17 17 17 16 15 15 14 14 14 14 13 14 13 13 13 13 13 13 14 14 15 16 18 20 21 23 23 22 21 21 20 20 20 20 19 18 18 17 17 16 16 16 16 15 15 15 15 15 14 14 13 12 13 14 14 12 11 10 9 10 10 10 9 7 7 6 6
30 30 28 27 25 23 22 21 20 17 16 16 17 17 16 17 18 18 18 18 17 16 15 14 14 14 14 14 14 14 13 13 13 13 13 13 13 14 15 15 17 18 19 21 22 21 20 20 19 19 18 17 17 16 16 16 16 15 14 14 14 13 14 13 13 12 11 11 10 8 8 8 8 7 6 5 5 7 7 7 6 5 5 5 5
29 29 27 26 25 24 22 21 21 18 17 16 16 15 15 16 18 18 18 18 17 16 15 14 14 14 14 13 13 13 13 13 13 13 12 12 12 13 14 14 15 17 17 19 20 20 20 19 18 17 16 15 14 14 14 14 13 13 12 12 11 11 11 11 10 9 9 8 7 6 6 5 4 4 4 4 4 6 6 5 5 5 5 5 6
28 28 26 25 25 24 22 22 21 19 17 16 15 14 14 16 17 18 18 17 16 16 15 14 14 14 14 13 13 13 13 13 13 12 12 12 11 12 13 14 14 15 16 17 18 19 18 17 16 14 13 12 13 13 12 12 11 11 11 11 10 10 10 9 9 8 7 6 6 6 6 5 5 6 6 7 8 9 9 9 9 9 9 9 9
27 26 26 25 24 24 23 22 21 20 18 16 15 14 14 15 16 17 16 16 16 15 15 14 14 14 13 13 12 12 12 12 12 12 12 11 11 11 12 13 13 13 14 15 17 17 16 15 14 13 11 11 12 12 12 11 10 11 13 13 12 12 11 11 9 8 7 6 7 7 7 7 9 11 12 12 13 13 13 13 15 15 15 14 14
26 25 25 25 24 24 23 23 22 20 18 16 15 14 14 14 15 16 15 15 15 15 14 14 14 13 13 12 12 11 11 11 12 11 11 11 11 10 11 11 11 11 12 13 15 16 15 15 14 12 11 11 12 13 12 11 11 13 14 13 13 12 12 12 11 10 10 9 9 10 10 11 14 16 16 16 16 16 16 17 18 17 17 16 16
26 25 25 25 24 24 24 23 22 21 19 17 16 14 14 14 14 14 14 14 14 14 14 14 13 13 12 12 12 11 11 11 11 11 10 10 11 11 10 10 10 11 12 13 15 15 15 14 12 11 10 12 14 14 13 13 15 15 14 12 11 11 12 12 12 12 11 11 11 12 13 15 17 17 17 17 18 19 18 18 17 17 18 17 16
25 25 25 25 24 24 24 23 22 21 19 18 16 15 14 13 13 13 13 13 14 13 13 13 12 12 12 11 11 11 11 11 11 10 10 10 11 11 10 9 9 10 12 13 14 14 13 12 10 9 12 15 16 16 15 15 16 16 14 12 12 12 13 13 13 12 12 12 12 12 14 16 18 19 18 19 20 19 18 18 16 16 17 17 17
25 25 25 25 24 24 24 23 22 21 19 18 16 15 14 13 12 12 12 12 13 13 12 12 12 12 12 11 11 10 10 11 10 10 10 10 11 11 10 9 8 9 12 13 14 13 11 10 8 8 14 17 17 16 16 16 16 15 14 14 13 13 13 13 13 13 13 13 12 13 15 18 19 19 18 18 18 17 17 18 17 17 18 18 19
25 25 25 25 24 23 23 22 21 21 19 17 16 15 14 13 12 11 11 11 11 11 11 11 12 11 11 11 10 10 10 11 10 10 10 10 11 11 11 9 9 9 11 13 13 12 10 8 6 7 13 16 15 15 16 16 15 16 16 16 15 14 13 14 14 15 14 13 12 14 16 18 19 18 17 16 17 17 17 17 18 18 19 19 20
24 24 24 24 23 22 21 21 21 20 19 17 16 15 14 14 12 11 11 10 10 10 10 10 10 10 10 10 10 10 10 11 11 11 10 10 10 11 11 10 10 10 12 13 13 12 9 7 5 6 11 13 13 14 15 15 15 16 16 16 16 15 15 15 16 16 15 13 12 15 17 18 19 18 17 17 17 17 17 17 18 18 18 19 19
22 22 22 23 22 21 20 20 20 20 19 18 17 15 14 13 12 11 11 11 11 10 9 8 8 7 8 8 9 10 11 11 12 12 11 10 9 10 11 11 11 12 13 14 14 12 9 7 5 5 9 11 12 13 14 14 14 15 16 16 16 16 16 16 16 16 15 13 13 15 17 17 18 17 17 16 17 17 18 18 18 18 18 18 18
21 22 22 22 21 21 20 19 20 19 19 18 17 15 14 14 13 12 12 11 11 10 9 7 7 6 6 6 8 10 11 11 12 12 11 10 9 8 10 11 11 12 14 15 14 12 9 7 5 5 7 9 10 12 13 13 13 14 15 15 15 16 17 16 16 16 15 14 13 14 15 16 17 17 16 16 17 18 18 18 18 17 17 16 16
19 21 21 21 21 21 20 19 19 19 18 17 16 16 15 15 14 13 12 11 10 9 8 7 6 5 5 6 7 9 10 11 11 12 11 10 9 8 9 12 12 13 15 16 15 13 10 8 7 5 6 8 9 11 11 12 13 14 14 15 15 15 16 16 16 15 14 13 12 13 14 15 16 16 16 17 17 17 17 17 16 16 15 15 15
17 19 21 20 21 20 19 19 19 19 18 18 17 16 15 15 14 14 12 11 10 9 8 7 6 5 5 5 6 7 9 10 11 11 11 10 9 8 8 11 12 14 16 17 16 14 11 9 8 6 6 7 9 9 10 11 13 14 14 14 15 15 15 15 15 14 13 12 12 12 14 15 15 15 16 16 16 16 15 15 15 14 14 13 13
16 17 19 19 20 19 18 18 18 18 18 18 17 16 15 14 13 13 12 10 9 9 8 7 6 6 5 6 7 7 7 9 10 10 11 10 9 8 8 10 12 14 17 18 18 16 12 10 9 7 6 7 8 8 9 10 12 13 14 14 15 15 15 14 14 13 12 12 11 12 13 14 14 14 14 14 14 14 14 14 13 13 12 12 12
17 17 18 19 19 18 18 17 17 17 18 18 17 16 15 14 13 12 12 10 9 8 8 8 7 7 6 7 9 9 8 8 8 8 10 10 9 9 8 10 12 15 18 20 20 17 14 11 10 7 6 7 8 8 8 9 11 13 13 14 14 14 14 14 13 12 11 11 11 11 12 12 13 13 13 13 13 12 12 12 12 12 11 11 11
16 16 17 17 18 18 17 17 17 17 18 18 17 17 16 15 14 13 13 11 9 8 9 9 8 8 8 8 9 10 10 10 9 8 9 10 10 9 9 10 12 16 20 21 21 18 15 12 10 8 7 6 7 8 8 9 10 11 13 14 14 14 14 14 13 12 11 10 10 11 10 11 11 11 11 11 11 11 11 11 11 11 10 10 10
16 15 15 15 17 17 18 18 18 17 18 18 17 17 17 16 16 15 13 11 10 10 10 10 9 9 9 9 10 11 12 12 11 8 8 9 10 9 10 11 13 17 21 22 21 18 15 13 11 8 7 6 6 7 7 8 9 10 12 13 14 14 14 13 13 11 11 10 10 10 10 10 11 11 11 11 10 10 10 10 10 10 9 10 10
15 14 14 16 17 18 18 18 18 17 17 18 17 17 17 17 17 16 14 12 11 11 11 10 10 9 9 10 11 11 12 12 10 9 8 9 9 9 11 13 15 18 22 22 21 18 16 14 11 9 8 7 6 5 5 7 8 9 11 12 13 14 14 13 12 12 11 10 10 10 10 10 10 11 11 10 10 10 10 10 10 10 10 10 10
17 17 16 17 18 18 19 18 17 17 18 18 19 18 18 18 18 17 15 13 13 12 12 11 10 10 11 11 12 11 10 10 9 8 8 9 9 9 11 14 16 19 23 23 21 19 16 15 12 10 8 6 6 5 4 5 6 8 9 10 11 13 13 13 12 12 11 10 9 9 9 9 10 10 10 10 10 11 11 10 10 10 10 11 11
20 19 18 19 18 18 19 18 18 18 18 19 19 19 19 18 17 17 16 14 14 13 13 12 11 11 12 12 12 11 10 9 9 8 8 9 10 9 10 14 17 20 23 23 22 20 18 16 13 11 8 6 4 4 3 4 5 6 7 8 10 11 12 12 11 11 11 10 9 8 8 8 8 9 9 10 11 11 11 11 11 11 11 11 11
20 19 20 20 18 17 17 18 18 18 19 19 19 20 19 19 18 17 17 16 14 14 13 13 11 12 14 14 13 13 11 9 7 8 8 8 10 10 10 13 17 19 22 24 23 21 19 17 14 12 9 6 5 4 3 2 3 5 6 7 8 10 10 10 10 10 10 9 8 8 7 7 7 8 9 10 10 11 11 11 11 11 11 11 12
20 20 19 20 18 17 17 17 17 17 19 20 19 20 20 20 19 18 18 18 16 16 16 14 12 14 17 16 14 13 11 8 6 7 7 7 8 11 12 13 17 19 20 23 24 22 21 19 16 13 11 8 6 5 3 2 1 3 4 5 7 8 9 10 10 10 9 8 7 6 6 7 7 8 9 10 10 11 11 12 12 12 12 12 12
21 22 20 20 18 17 17 17 17 17 18 19 19 19 20 21 20 19 19 19 19 18 17 15 14 16 18 16 15 14 11 8 7 8 8 8 9 12 14 14 17 20 19 20 23 24 23 20 18 15 13 10 8 6 4 2 1 2 3 4 5 6 7 9 10 9 9 8 6 5 6 7 8 10 10 11 11 11 12 12 12 12 12 12 12
20 23 20 20 18 17 18 18 18 18 18 18 19 19 20 20 20 20 19 19 19 18 17 16 16 17 19 17 15 14 11 8 7 8 9 10 12 12 15 16 18 21 19 18 21 24 24 22 19 17 14 12 9 7 5 3 2 0 2 3 3 5 6 7 8 8 8 6 5 5 6 8 10 11 12 12 12 12 12 12 12 12 12 12 11
18 22 21 20 19 18 19 19 19 19 19 19 19 19 19 20 20 20 20 19 18 18 18 18 17 19 20 18 16 13 10 8 8 9 10 11 11 11 14 17 19 21 21 19 19 22 25 23 20 18 16 14 11 8 6 5 3 2 1 1 2 3 4 6 7 7 6 4 4 4 6 9 10 12 12 13 13 13 13 12 12 12 11 11 10
17 21 22 21 21 21 21 20 21 21 20 20 20 19 20 21 20 20 21 20 19 19 19 19 19 20 20 17 16 13 10 10 10 10 11 11 11 10 13 17 19 21 22 20 19 20 23 23 21 19 17 15 12 10 7 6 5 4 2 1 1 2 3 5 5 6 4 3 3 4 6 9 10 12 13 13 12 12 11 11 11 10 9 9 9
16 19 21 22 22 22 22 22 23 23 21 20 20 20 21 21 20 20 20 20 20 20 19 19 19 19 19 17 16 14 12 12 12 11 12 12 11 10 13 17 19 21 23 22 21 21 22 22 21 19 17 15 13 11 8 7 5 5 3 2 2 2 3 3 4 4 3 2 2 4 6 8 10 11 11 11 10 9 8 8 8 7 7 7 7
16 17 20 20 21 22 23 23 24 24 22 21 21 22 22 21 20 19 19 19 21 21 20 19 18 19 19 18 17 14 13 14 13 12 13 13 12 12 13 17 19 22 23 23 23 22 22 22 21 20 17 16 14 11 9 7 6 5 3 3 3 2 2 1 2 2 2 2 3 4 5 7 8 9 9 9 8 7 6 6 5 5 5 6 6
16 18 19 19 18 20 23 23 23 24 24 23 23 23 22 20 19 18 18 19 20 21 20 19 19 19 19 19 18 15 14 15 14 14 14 14 13 13 13 15 19 22 23 23 23 22 22 22 21 20 18 16 15 12 9 7 6 5 4 4 4 3 2 1 1 2 2 3 4 5 5 7 8 9 9 7 7 7 6 4 4 3 3 4 4
18 17 17 17 17 19 22 22 22 25 26 26 26 24 20 18 18 18 19 19 21 22 20 19 20 20 20 20 17 15 16 16 16 15 15 14 14 14 14 14 17 21 23 23 22 22 22 21 21 20 18 17 15 12 10 7 6 5 5 5 5 4 3 3 3 3 3 5 6 7 7 8 9 9 9 7 7 6 5 4 3 3 2 2 2
20 16 15 17 17 18 20 21 23 25 27 27 27 23 19 18 18 18 19 19 21 22 21 20 20 20 20 19 17 16 17 18 18 17 16 15 14 15 15 15 16 20 22 23 22 22 21 20 19 18 17 16 15 12 10 8 6 6 6 7 6 6 6 5 5 5 5 6 8 8 9 10 9 8 7 7 6 5 5 4 3 3 2 1 2
19 18 17 17 18 19 20 21 24 26 25 26 25 22 20 20 18 18 19 19 21 22 21 20 20 20 20 20 18 17 17 19 19 18 18 17 16 16 16 17 17 19 21 22 22 21 20 19 18 17 16 15 13 12 11 9 7 7 7 8 8 9 8 7 7 6 6 7 8 9 9 9 8 7 7 6 6 5 4 3 2 2 1 1 2
18 19 19 18 18 20 21 22 24 24 23 24 23 21 22 21 20 20 20 20 20 21 22 22 21 21 20 20 19 18 18 19 21 20 20 19 17 17 18 19 19 19 20 21 21 21 20 19 17 16 15 13 12 11 10 9 8 8 9 10 11 10 10 10 8 7 8 8 8 9 9 9 8 7 6 5 5 4 3 2 2 2 2 2 3
19 18 20 21 21 21 23 23 23 23 24 25 23 23 23 22 22 22 22 22 21 22 23 23 22 22 21 21 20 20 20 20 22 22 22 21 20 19 20 21 21 20 21 21 21 20 20 19 17 16 15 13 13 12 10 10 9 9 10 12 11 10 11 10 9 8 8 8 8 9 8 8 7 6 5 4 4 3 3 3 3 3 3 3 3
21 19 21 23 23 23 24 23 22 23 25 26 26 25 24 24 24 24 24 24 23 24 24 24 23 22 23 23 22 21 21 21 22 23 24 23 22 22 22 22 22 22 21 20 19 19 19 18 17 16 16 15 13 11 10 11 10 10 11 11 10 12 12 10 10 10 9 8 8 8 7 7 5 5 5 4 4 4 4 4 4 5 4 4 4
24 22 22 23 23 23 24 23 22 23 25 27 29 28 26 24 24 25 26 24 23 25 26 25 24 23 23 23 22 21 21 22 23 24 24 24 24 24 24 23 23 22 21 20 17 17 18 18 17 17 18 16 13 12 12 12 12 12 13 11 10 10 11 12 12 10 9 9 9 8 6 6 5 5 5 4 4 5 5 6 6 5 5 5 5
26 23 22 23 23 24 25 24 23 24 26 28 29 30 28 26 24 24 25 25 24 26 26 26 24 23 24 23 22 22 23 24 25 26 26 26 26 27 26 24 23 22 22 21 19 17 18 18 18 17 16 15 13 13 14 14 14 15 15 14 12 10 9 10 12 11 10 10 9 8 7 6 6 6 5 5 5 5 5 7 7 6 5 6 6
24 23 24 25 25 26 26 25 26 27 28 28 29 30 30 27 25 24 25 24 24 25 25 25 24 24 25 25 23 23 24 25 26 27 27 28 29 28 26 25 23 22 22 22 20 19 19 17 18 17 15 15 14 14 14 15 15 16 16 14 13 12 9 9 11 11 10 10 10 9 8 8 7 7 5 5 6 6 5 6 6 6 6 6 6
23 22 23 23 23 23 23 23 24 23 25 26 27 28 29 29 27 26 25 24 24 24 24 24 24 25 26 25 23 23 25 25 27 28 28 30 31 28 26 25 23 22 22 22 21 21 20 18 18 18 16 16 17 17 16 16 15 16 17 14 12 12 9 10 12 12 11 11 11 11 10 9 8 7 6 6 6 6 5 5 6 6 5 5 5
21 21 21 19 18 18 18 19 19 18 20 22 24 26 28 29 28 27 26 25 24 24 24 25 25 26 27 25 24 25 26 26 27 28 29 31 31 28 26 25 24 23 22 22 21 21 20 19 19 19 17 17 17 17 18 18 16 16 16 12 9 9 11 13 13 12 12 12 12 12 11 10 9 8 8 7 6 6 6 6 5 5 5 5 4
18 20 21 19 18 18 18 19 19 18 20 23 25 28 29 28 27 27 28 28 27 27 26 25 26 27 27 25 25 26 27 28 27 27 29 32 31 28 26 25 24 24 24 23 21 21 21 21 21 19 18 18 16 16 17 18 18 18 17 13 9 7 10 15 15 13 13 14 14 13 12 11 10 10 9 8 7 7 7 6 5 4 4 3 3
15 19 20 18 17 16 17 18 19 20 22 23 25 27 27 27 26 27 27 26 26 27 27 26 26 27 27 27 27 28 28 28 28 27 30 31 29 27 26 24 23 23 23 22 22 22 22 22 22 20 19 18 17 16 16 18 20 20 19 15 12 9 7 11 15 16 15 16 16 15 14 13 12 11 10 8 8 7 7 6 5 4 3 2 2
11 13 15 15 16 15 16 15 17 21 23 23 24 25 26 25 24 25 24 23 23 24 26 27 27 27 27 28 30 30 28 28 28 28 30 30 28 27 26 24 23 22 21 21 22 24 24 22 22 21 19 18 17 17 16 18 19 20 19 17 14 12 8 8 13 16 16 18 19 17 15 14 14 13 11 9 8 7 6 6 5 4 3 1 1
5 7 7 9 12 15 15 14 16 21 23 25 26 25 25 23 22 21 21 24 25 24 26 28 29 28 27 28 31 30 27 27 29 29 30 30 28 28 26 25 24 22 22 21 22 25 25 23 22 21 19 18 17 16 16 16 17 17 18 18 16 14 11 9 14 17 15 16 19 19 18 16 16 15 13 12 10 7 6 6 6 4 3 2 1
4 5 4 5 10 15 15 14 17 21 23 26 27 25 22 20 20 20 21 24 24 23 25 28 30 30 29 29 30 29 26 26 29 29 30 30 28 28 26 25 24 23 23 22 23 26 25 23 22 21 19 18 17 17 17 15 14 15 17 17 17 17 13 12 16 20 17 15 15 17 19 19 18 17 15 13 11 8 7 6 6 5 3 2 2
6 8 7 7 11 15 15 16 20 23 24 25 25 25 21 19 21 21 22 23 21 20 23 26 28 30 31 30 30 30 28 28 28 28 29 28 27 26 24 23 23 24 24 23 23 25 24 22 22 20 18 18 18 18 17 15 14 15 17 17 16 17 14 11 14 19 20 17 14 15 18 19 18 16 16 15 11 9 7 7 7 6 4 3 3
Wind_Direction
173 176 175 171 171 169 169 168 165 166 164 166 168 168 167 169 173 177 181 183 185 184 177 171 165 159 153 146 139 132 125 118 115 107 100 95 90 87 90 99 103 106 108 106 103 100 98 100 101 99 96 96 96 97 98 96 97 101 103 104 103 103 104 106 105 103 101 100 101 101 98 95 94 96 98 100 101 96 91 89 90 89 83 80 80
170 174 174 171 170 169 169 167 165 165 162 164 167 167 166 168 172 176 181 183 183 178 172 166 160 155 150 146 140 133 128 125 120 109 103 99 95 93 94 100 106 109 112 111 109 105 101 101 101 100 99 99 98 97 98 97 97 98 100 103 104 102 102 103 103 102 103 103 101 100 97 94 92 92 93 94 95 95 94 93 93 91 85 84 88
167 171 173 170 169 168 168 166 166 163 161 163 166 168 167 168 172 176 178 177 175 170 166 161 156 152 149 146 141 137 135 132 123 113 107 101 98 97 96 101 107 111 115 116 114 110 105 103 103 102 101 100 99 98 99 98 97 96 98 100 101 99 98 98 98 101 105 103 99 98 97 95 94 92 91 90 91 94 95 96 94 92 90 89 95
166 170 171 168 168 168 168 167 166 163 161 163 167 168 168 170 170 172 171 168 167 165 164 158 154 151 150 148 145 145 142 135 125 116 108 102 101 101 98 101 109 113 116 119 120 117 112 109 107 107 106 103 101 100 100 99 97 96 95 95 96 96 96 96 94 94 95 93 93 94 95 96 96 93 93 95 98 100 101 104 102 99 94 90 97
167 170 170 168 168 168 169 168 166 164 162 164 167 168 168 169 168 167 165 164 164 163 162 156 154 153 153 152 151 150 145 138 128 118 109 105 104 102 101 100 107 114 116 121 124 123 120 117 115 113 112 108 107 106 103 101 98 97 96 96 96 96 95 95 90 87 83 80 83 86 90 95 96 93 92 96 107 117 118 118 115 101 88 86 88
167 170 171 169 168 169 170 168 167 165 164 165 167 168 166 167 166 165 163 163 163 163 161 157 156 155 156 156 155 152 147 140 130 121 113 108 104 102 102 101 105 113 118 122 125 127 127 126 125 123 121 119 117 111 105 100 97 98 99 97 94 93 93 91 86 82 77 73 74 78 88 95 106 113 98 95 108 124 122 111 107 97 88 89 85
169 170 171 170 170 170 172 170 169 167 166 167 168 168 165 166 167 165 164 163 163 163 162 160 158 158 157 158 156 154 150 143 133 124 118 112 105 101 102 104 106 113 120 123 125 129 131 132 133 131 130 128 121 111 104 101 98 96 94 93 91 90 88 85 79 71 67 63 65 68 80 85 102 117 103 92 91 95 99 93 90 89 88 89 88
172 172 172 172 172 172 173 172 171 170 169 169 169 170 167 166 167 167 165 163 163 163 164 163 161 159 157 158 156 155 152 145 137 128 121 117 110 104 103 105 108 113 120 122 123 128 131 133 134 133 132 125 114 108 106 105 99 94 93 91 89 89 87 83 78 71 68 65 63 66 81 85 89 99 96 90 88 89 92 91 88 84 86 86 85
174 175 174 174 175 175 175 174 173 172 170 170 171 171 167 165 167 168 166 164 164 165 167 167 165 162 159 158 156 155 154 148 140 131 123 117 114 110 105 106 109 114 116 117 120 125 128 130 132 133 127 115 108 108 106 102 95 95 95 90 86 86 84 79 75 72 74 72 69 76 91 93 88 90 90 87 86 88 90 94 94 92 92 90 88
177 176 175 177 177 177 177 176 175 174 172 172 173 171 166 163 163 165 166 166 165 167 169 169 168 164 162 161 158 157 156 153 145 136 126 116 115 115 110 109 111 115 116 116 120 123 128 130 133 130 113 103 105 107 103 95 89 90 91 88 85 83 79 75 73 75 77 78 78 85 93 92 89 89 90 91 89 87 88 92 95 100 100 95 94
179 178 177 179 180 180 179 178 178 176 175 175 175 171 165 161 159 160 162 164 164 168 170 170 169 167 166 165 162 161 159 157 151 143 133 123 118 119 117 114 115 119 120 121 123 126 129 131 130 116 98 98 103 103 96 88 81 79 81 82 81 78 75 74 75 77 80 85 84 85 90 91 90 88 88 90 92 91 91 92 94 102 103 98 97
181 181 178 179 182 181 180 181 180 179 179 177 176 172 166 162 159 156 153 156 160 164 168 169 169 169 169 168 168 166 164 161 158 152 143 133 122 122 125 122 122 124 126 127 129 129 130 130 124 106 97 100 101 97 90 82 73 70 70 70 70 70 69 71 73 76 81 85 83 84 90 93 92 91 90 90 94 96 97 96 95 95 95 94 93
184 182 178 181 182 181 181 182 182 182 181 179 178 174 169 164 161 156 150 151 155 160 164 167 168 171 172 170 169 167 167 165 165 159 152 144 128 124 130 133 132 133 134 134 135 135 137 137 125 104 98 98 96 90 84 76 69 65 63 61 61 63 64 67 70 73 79 80 82 89 91 91 91 93 95 95 97 99 99 98 95 93 91 91 91
185 182 179 182 181 179 180 182 183 184 184 182 180 176 172 168 163 157 154 157 159 161 163 167 168 172 173 172 171 169 168 168 168 163 159 155 140 129 133 140 143 143 143 141 143 145 150 153 133 106 95 92 88 82 76 69 65 63 61 58 58 61 63 66 68 70 74 74 81 91 90 88 90 91 94 96 97 98 99 98 95 94 93 92 91
186 184 182 182 179 177 179 182 184 186 187 186 182 178 175 172 169 165 165 167 163 164 166 168 168 169 169 168 171 168 166 168 166 164 162 160 153 141 136 142 149 151 151 149 152 156 163 168 150 115 95 88 82 76 72 67 64 61 59 59 59 64 66 67 67 68 71 69 73 86 89 89 90 92 94 95 96 98 98 96 93 92 93 92 92
188 186 185 182 178 177 179 181 184 187 188 188 185 179 178 178 177 176 176 175 168 167 168 167 165 163 161 160 167 168 166 165 163 164 163 159 160 155 142 142 152 156 156 156 159 165 175 180 168 135 103 93 83 76 72 69 65 61 60 60 61 65 68 68 67 69 73 69 68 77 84 87 89 91 94 93 93 94 95 94 93 92 92 92 91
189 186 185 182 178 178 180 181 184 186 189 189 187 183 182 184 183 185 184 180 175 171 171 170 167 164 163 158 164 170 166 160 158 160 157 152 154 155 147 144 150 157 160 162 165 173 184 189 179 153 119 100 87 80 75 72 68 63 62 62 63 67 69 69 69 70 72 71 70 74 77 80 82 83 85 86 86 88 90 91 91 92 92 90 90
187 184 183 181 177 178 180 182 185 185 188 187 187 187 186 187 188 190 187 183 180 177 178 175 174 172 168 163 166 175 174 164 159 155 150 146 146 147 146 144 149 157 163 166 169 179 189 193 186 164 132 112 96 87 80 77 71 66 66 65 66 68 70 70 71 72 72 72 71 74 75 74 74 74 76 78 81 83 85 88 89 90 90 89 89
179 177 180 181 178 180 181 182 185 186 188 187 186 187 187 190 191 194 190 187 185 184 186 182 181 178 172 167 165 175 181 173 165 156 150 145 142 144 143 143 148 156 163 167 171 182 192 193 191 171 142 124 108 97 86 81 73 68 68 66 67 69 70 71 72 73 73 73 72 72 74 74 73 73 75 78 79 81 83 85 86 86 86 87 85
172 176 178 182 181 181 182 182 186 187 189 189 189 189 189 191 194 198 198 195 191 189 191 188 185 181 180 175 171 176 173 170 175 168 157 149 142 144 144 143 149 156 163 168 173 183 192 194 192 177 153 134 118 109 94 84 74 68 67 65 68 71 71 70 69 71 71 72 72 73 71 72 74 73 74 75 75 76 77 78 79 81 82 82 81
170 177 178 181 180 178 182 184 187 188 191 190 191 192 192 192 195 200 199 197 193 192 193 189 188 184 183 184 184 183 172 169 182 186 169 155 144 142 146 146 151 158 163 168 174 183 191 195 194 181 162 142 125 119 106 91 77 69 66 65 68 71 72 70 67 68 71 71 70 72 73 74 73 72 70 70 71 70 70 72 75 77 74 73 76
169 174 175 177 176 176 182 184 186 187 190 191 190 193 195 194 196 198 196 193 189 191 193 190 190 189 188 190 193 188 180 177 182 193 183 163 150 143 147 150 155 161 164 167 174 182 190 196 198 186 170 152 134 124 111 94 80 73 69 67 67 69 71 72 71 68 69 71 71 74 77 79 79 78 74 71 71 69 67 66 69 69 66 67 67
166 171 173 177 176 177 181 183 184 184 189 191 191 194 198 198 197 198 196 191 190 192 195 197 197 199 200 196 193 189 186 183 184 195 195 178 160 148 151 155 158 163 165 168 174 182 190 197 200 195 182 164 146 126 106 91 77 70 70 70 68 66 68 71 72 70 68 69 72 76 77 78 79 81 80 78 76 73 71 67 67 66 64 66 65
175 175 175 178 178 179 182 182 184 187 191 193 194 198 200 200 198 197 196 194 194 193 196 202 202 206 206 197 191 188 187 188 188 194 200 192 175 160 161 162 162 166 170 171 176 183 191 197 199 201 196 177 152 127 101 89 76 68 66 68 65 63 64 66 69 70 69 68 70 73 74 75 77 79 79 80 81 79 77 74 71 69 69 68 68
183 180 180 183 184 186 187 184 187 191 194 196 198 201 202 202 200 198 198 198 198 198 202 202 201 206 205 199 194 190 190 193 189 189 197 199 192 179 172 170 166 168 174 176 179 185 192 197 199 202 204 191 159 129 102 79 71 69 64 61 59 56 57 60 64 66 67 67 67 69 68 72 78 81 80 80 82 83 82 81 79 77 76 74 73
185 186 187 189 190 190 189 188 191 195 197 199 202 203 203 204 203 201 200 202 201 203 207 204 203 207 206 204 200 196 197 198 193 197 202 201 200 194 183 178 172 169 176 180 183 189 194 197 199 204 206 196 178 153 129 90 64 71 67 59 54 50 52 56 59 60 62 62 63 66 67 69 75 79 81 83 85 87 87 87 86 85 83 81 79
184 191 193 192 191 187 187 189 192 196 199 203 205 204 205 206 205 203 205 206 205 206 208 207 209 209 208 207 204 203 201 198 201 210 215 214 214 207 195 185 178 174 175 182 188 192 196 198 198 204 207 203 193 178 163 148 79 67 63 57 54 50 52 54 53 52 53 55 60 68 72 77 83 86 88 90 91 93 93 92 91 89 87 86 84
186 191 194 195 192 186 184 186 191 196 200 205 209 208 208 208 206 206 209 211 210 210 209 209 210 210 208 207 206 206 203 202 213 222 231 236 227 211 199 189 184 181 177 181 189 195 198 199 200 205 209 209 204 196 188 184 149 57 48 47 51 54 54 51 46 45 47 50 59 76 88 93 96 99 99 99 98 96 94 94 93 91 89 88 87
190 190 190 196 193 189 188 188 193 197 200 204 210 213 208 206 207 208 210 214 213 210 211 210 208 208 205 206 207 205 207 209 218 227 233 233 222 209 199 191 188 186 182 181 188 195 199 200 201 205 210 211 210 208 208 207 208 49 40 36 39 50 52 44 37 39 45 50 65 86 99 103 106 108 107 106 103 99 96 95 93 91 90 89 88
191 190 191 196 195 195 194 195 198 200 201 204 209 213 209 206 209 209 209 214 214 210 212 210 207 207 203 206 208 204 212 219 221 227 224 219 214 206 194 188 188 186 184 185 186 194 199 201 202 205 209 210 211 215 217 218 220 243 344 18 20 33 34 31 29 35 44 56 79 105 115 115 117 116 113 109 104 100 97 94 91 88 86 85 84
185 191 194 199 200 200 201 202 203 204 204 206 210 213 211 209 210 210 209 212 214 213 212 210 208 206 203 204 207 206 214 219 221 221 210 207 209 202 188 184 187 186 185 187 187 192 197 200 203 204 206 210 216 218 220 229 235 249 276 319 321 350 4 12 25 38 46 57 95 126 131 125 124 121 115 109 101 95 91 87 85 83 81 78 75
182 192 197 202 205 205 207 208 209 209 209 209 212 214 213 212 210 209 211 212 213 215 214 214 210 204 202 203 207 211 215 215 216 210 200 203 209 203 191 187 189 187 185 187 189 192 195 197 200 202 206 213 218 219 225 239 244 248 259 276 277 303 335 356 25 46 51 55 114 146 145 135 133 128 120 110 99 91 84 80 79 77 72 66 65
183 190 200 207 209 209 210 212 213 215 216 215 216 218 215 214 213 212 214 213 212 213 215 216 210 202 202 205 210 215 213 213 213 204 201 205 207 204 197 194 194 191 187 187 190 194 196 198 201 205 209 213 216 222 231 241 242 238 243 254 252 266 299 342 37 65 69 75 128 148 148 145 144 136 123 109 104 99 92 86 80 74 58 53 56
189 191 202 208 212 213 213 215 216 219 220 220 222 221 217 217 218 216 216 214 211 211 214 217 213 208 207 207 213 214 209 212 211 207 208 206 204 202 200 197 198 195 190 189 192 195 199 202 205 208 209 211 216 223 229 235 238 234 235 239 236 232 222 174 103 98 93 102 130 140 139 145 145 135 124 114 109 109 106 100 90 81 61 56 59
204 202 206 207 213 218 217 217 218 221 222 223 226 224 221 224 224 220 218 216 213 211 215 218 217 216 214 210 214 213 208 212 211 209 211 205 202 199 196 194 195 194 191 193 195 198 202 203 207 210 210 211 214 219 222 225 230 233 235 232 227 219 194 164 140 127 119 119 129 134 135 141 140 133 131 127 120 115 112 107 99 93 76 62 59
215 217 214 210 212 219 222 222 224 226 224 226 229 227 228 232 230 225 222 220 217 216 219 219 218 221 219 214 215 214 212 214 212 210 208 203 200 195 191 191 189 189 191 195 199 202 205 206 209 211 212 211 212 216 218 219 221 222 229 227 218 205 183 160 147 141 137 135 134 137 138 141 141 136 133 131 127 120 112 106 101 97 80 59 52
221 223 222 218 216 218 221 224 230 233 232 231 232 231 233 237 236 229 227 225 222 222 222 219 220 223 222 218 217 216 216 217 215 211 206 202 199 192 190 191 187 185 189 195 200 204 207 209 211 211 211 211 215 219 216 217 216 212 218 219 211 199 175 152 147 149 147 144 141 142 142 142 142 140 137 131 126 118 107 95 85 88 90 73 67
225 225 227 227 224 223 224 227 234 240 243 241 237 235 236 239 239 233 230 230 226 225 223 221 221 222 223 223 222 220 219 218 216 213 207 203 201 195 192 193 190 186 188 192 196 201 205 208 210 211 209 209 214 216 216 218 211 207 209 209 208 194 162 147 149 153 151 148 145 144 143 145 146 142 136 129 121 110 97 82 71 85 101 99 88
230 230 232 231 230 231 231 232 236 243 247 247 243 239 237 239 238 233 230 228 226 226 224 221 221 223 224 226 225 223 221 218 216 214 210 207 205 201 197 196 195 192 192 192 191 194 199 205 208 211 211 210 214 218 222 218 207 205 205 207 205 179 155 151 155 158 156 150 149 148 146 148 149 142 136 128 115 98 89 89 90 98 107 109 105
236 239 237 232 231 234 236 238 240 244 248 249 248 243 239 238 236 233 230 228 226 227 226 223 223 225 227 229 228 225 222 218 216 215 213 211 210 207 202 200 200 199 198 198 196 194 196 203 208 213 214 207 208 218 222 215 205 199 197 207 201 169 159 162 162 165 164 156 155 155 154 155 155 148 142 130 112 99 96 102 109 111 111 108 104
238 241 238 232 232 236 239 243 245 248 250 251 251 249 246 242 239 236 234 232 228 228 228 227 227 228 230 233 233 229 225 221 218 217 215 214 212 208 205 204 205 205 204 206 206 202 198 203 209 218 222 210 199 205 211 208 202 196 191 197 190 170 173 175 169 171 169 164 164 162 164 172 172 162 152 137 117 105 107 115 117 115 112 110 106
239 240 239 235 236 239 243 247 252 255 256 256 256 256 255 252 249 245 241 238 234 233 232 230 230 233 235 236 235 230 226 223 222 220 217 215 213 209 207 206 208 210 211 211 212 211 204 204 211 221 224 214 205 206 204 201 202 202 196 188 181 182 193 185 174 177 178 174 173 171 179 188 186 176 163 146 128 116 119 122 117 115 115 114 111
239 239 239 239 240 242 246 251 256 261 263 263 263 262 262 262 260 254 247 244 242 241 239 237 236 239 239 238 236 232 227 226 225 223 221 218 215 212 210 210 212 216 218 215 213 215 209 206 215 221 215 204 206 210 205 204 206 204 196 188 186 188 194 192 184 185 187 184 181 182 191 192 184 180 167 151 141 131 132 132 120 116 117 115 110
240 241 243 244 247 250 253 259 265 272 276 273 270 267 265 265 265 260 253 251 252 251 247 244 243 245 246 243 239 235 232 232 229 226 225 222 218 214 214 215 217 220 223 219 216 215 209 207 216 218 209 202 204 205 204 207 209 204 195 187 187 189 195 200 193 190 191 189 189 191 195 189 181 181 169 157 152 139 141 144 129 119 116 115 108
244 245 249 255 264 271 272 277 282 286 289 285 277 271 267 267 266 262 258 255 255 257 255 251 247 247 249 248 242 236 235 236 232 229 228 224 221 217 217 219 219 219 221 219 217 216 211 209 215 214 208 209 209 203 201 203 206 209 208 199 190 195 205 204 196 194 193 189 189 195 197 186 181 185 174 166 159 144 147 149 135 130 127 121 109
251 246 246 252 266 277 279 282 284 280 282 282 276 272 270 270 269 266 265 264 263 262 261 259 255 252 252 251 245 236 236 237 233 230 227 223 221 220 220 219 217 217 217 215 215 215 211 210 212 212 209 210 212 209 205 203 201 206 218 220 213 214 214 205 197 193 191 189 189 194 196 185 185 189 177 172 170 153 153 155 148 146 141 133 115
255 247 245 251 260 270 275 282 287 280 274 271 270 270 268 269 271 271 272 273 272 269 267 266 264 260 258 255 247 238 234 236 233 228 225 223 222 222 223 219 215 216 216 217 219 216 211 210 210 211 211 209 211 213 212 208 202 202 211 218 220 225 227 214 203 192 187 189 191 195 195 188 189 191 179 175 178 167 165 171 166 158 156 151 117
267 255 255 263 265 268 274 280 281 274 269 268 270 273 272 272 272 271 272 277 279 280 279 274 269 265 262 259 252 243 235 232 231 226 224 224 225 224 225 221 214 214 215 218 225 220 210 209 210 210 211 210 210 212 213 214 209 203 205 208 215 221 230 233 216 204 194 188 190 195 196 192 191 188 179 173 176 170 166 173 175 167 170 192 228
269 263 271 284 272 265 271 274 270 266 265 267 271 276 278 278 276 274 276 280 280 282 281 275 270 267 264 261 257 252 243 234 229 226 223 223 224 225 226 223 215 212 215 219 226 223 211 208 210 209 209 207 207 210 213 218 217 211 207 205 207 211 222 232 216 212 209 195 192 196 195 193 192 187 177 170 169 165 160 163 171 175 182 205 232
251 254 273 288 261 254 257 259 260 261 259 262 270 278 281 280 277 274 275 276 275 277 277 275 274 270 264 262 258 256 252 240 232 229 224 221 224 227 225 222 219 217 219 222 227 223 214 211 212 210 210 206 205 208 211 217 220 218 216 211 206 203 208 215 206 207 214 210 207 203 196 195 194 184 175 171 166 161 161 162 166 176 192 205 203
264 256 257 257 254 254 255 252 251 254 258 263 270 277 280 277 272 269 271 276 277 276 276 274 275 272 267 264 260 259 255 240 230 230 228 222 222 225 219 218 224 224 222 224 227 225 217 214 213 210 212 210 207 207 209 215 218 219 219 217 212 205 206 216 210 207 212 214 216 210 199 198 199 188 176 174 170 165 169 168 166 173 182 179 174
Height
1507 1509 1511 1513 1515 1516 1518 1519 1521 1522 1523 1524 1525 1527 1528 1529 1530 1531 1532 1533 1534 1534 1534 1535 1535 1535 1536 1537 1537 1538 1539 1539 1540 1540 1540 1540 1540 1540 1540 1540 1540 1541 1541 1542 1543 1543 1544 1544 1544 1544 1545 1545 1545 1546 1546 1546 1547 1547 1547 1547 1548 1548 1549 1549 1549 1549 1548 1549 1549 1549 1549 1548 1548 1549 1550 1550 1549 1550 1549 1549 1549 1549 1550 1551 1551
1505 1509 1511 1513 1515 1517 1519 1520 1521 1522 1523 1525 1526 1527 1528 1530 1531 1531 1532 1533 1534 1535 1535 1536 1536 1536 1537 1538 1538 1539 1540 1540 1541 1541 1541 1541 1541 1541 1541 1541 1541 1542 1542 1543 1544 1545 1545 1545 1546 1546 1546 1547 1547 1547 1547 1548 1548 1549 1549 1549 1549 1550 1550 1550 1550 1550 1551 1551 1551 1550 1550 1550 1549 1549 1550 1550 1551 1551 1551 1551 1551 1551 1552 1553 1553
1506 1509 1512 1514 1516 1518 1519 1521 1522 1523 1524 1525 1527 1528 1529 1530 1531 1532 1533 1534 1534 1535 1536 1536 1537 1537 1538 1539 1539 1540 1541 1541 1542 1542 1542 1543 1543 1543 1542 1542 1542 1543 1543 1544 1545 1546 1546 1547 1547 1547 1548 1548 1548 1548 1549 1549 1549 1550 1551 1551 1551 1551 1551 1551 1551 1551 1552 1552 1552 1551 1550 1551 1551 1551 1551 1552 1552 1552 1552 1553 1553 1553 1554 1554 1554
1507 1510 1513 1515 1516 1519 1520 1522 1523 1524 1525 1526 1527 1528 1530 1530 1531 1532 1533 1534 1535 1536 1536 1537 1537 1538 1539 1539 1540 1541 1542 1542 1543 1543 1544 1544 1544 1544 1544 1543 1543 1544 1544 1545 1546 1547 1547 1548 1548 1549 1549 1549 1549 1550 1550 1550 1551 1552 1552 1552 1552 1553 1553 1552 1552 1553 1553 1553 1553 1552 1551 1551 1552 1552 1552 1553 1553 1553 1553 1553 1554 1554 1554 1554 1554
1509 1511 1514 1515 1517 1519 1520 1522 1523 1525 1526 1527 1528 1529 1530 1531 1532 1532 1534 1534 1535 1536 1537 1538 1538 1539 1540 1540 1541 1542 1543 1543 1544 1544 1545 1545 1545 1545 1545 1544 1544 1545 1545 1546 1547 1548 1548 1549 1549 1550 1550 1550 1550 1551 1551 1552 1552 1553 1553 1553 1553 1554 1554 1554 1553 1553 1553 1553 1554 1553 1553 1552 1552 1552 1552 1552 1552 1553 1553 1554 1554 1554 1554 1555 1555
1510 1513 1514 1516 1518 1519 1521 1522 1524 1525 1526 1528 1529 1530 1531 1532 1532 1533 1534 1535 1536 1537 1538 1538 1539 1540 1541 1541 1542 1543 1543 1544 1545 1545 1546 1546 1546 1546 1546 1546 1546 1546 1546 1547 1548 1549 1549 1550 1550 1551 1551 1551 1551 1552 1552 1553 1553 1554 1554 1554 1554 1554 1554 1554 1554 1554 1554 1554 1554 1554 1554 1553 1553 1553 1553 1553 1553 1553 1554 1554 1554 1555 1555 1555 1556
1511 1513 1515 1517 1518 1520 1521 1523 1524 1525 1527 1528 1530 1531 1531 1532 1533 1534 1535 1536 1537 1538 1539 1539 1540 1541 1542 1543 1543 1544 1544 1545 1546 1547 1547 1547 1547 1547 1547 1547 1547 1547 1548 1548 1549 1550 1550 1551 1551 1551 1552 1552 1553 1553 1554 1554 1554 1555 1555 1555 1555 1555 1555 1555 1555 1555 1555 1555 1555 1554 1554 1554 1554 1554 1554 1554 1554 1554 1554 1555 1555 1555 1556 1556 1557
1512 1514 1516 1518 1519 1520 1522 1523 1525 1526 1527 1529 1530 1531 1532 1533 1534 1535 1536 1537 1538 1539 1540 1541 1541 1542 1543 1544 1544 1545 1545 1546 1547 1548 1548 1548 1548 1548 1548 1549 1549 1549 1549 1550 1550 1551 1552 1552 1552 1552 1553 1553 1554 1555 1555 1555 1556 1556 1556 1556 1556 1556 1556 1556 1556 1556 1556 1555 1555 1555 1555 1555 1555 1555 1555 1555 1555 1555 1556 1556 1557 1557 1558 1558 1558
1513 1515 1517 1518 1519 1521 1522 1524 1525 1527 1528 1530 1531 1532 1533 1534 1535 1536 1537 1538 1539 1540 1541 1542 1543 1543 1544 1545 1545 1546 1546 1547 1548 1548 1549 1549 1549 1549 1549 1550 1550 1550 1550 1551 1551 1552 1553 1553 1553 1553 1554 1555 1556 1557 1557 1557 1557 1557 1557 1557 1557 1557 1557 1557 1557 1557 1556 1556 1556 1556 1556 1556 1556 1556 1556 1556 1556 1557 1557 1558 1558 1559 1560 1560 1560
1514 1515 1517 1519 1520 1522 1523 1524 1526 1527 1529 1530 1532 1533 1534 1535 1536 1537 1538 1539 1540 1541 1542 1543 1544 1544 1545 1546 1546 1547 1547 1548 1549 1549 1550 1550 1550 1550 1551 1551 1551 1552 1552 1552 1553 1553 1554 1554 1554 1555 1555 1557 1558 1558 1558 1558 1558 1558 1558 1558 1558 1558 1558 1558 1557 1557 1557 1557 1557 1557 1557 1557 1557 1557 1558 1558 1558 1559 1559 1560 1560 1561 1561 1561 1561
1515 1516 1518 1519 1521 1522 1524 1525 1527 1528 1530 1531 1533 1534 1535 1536 1537 1538 1539 1540 1541 1542 1543 1544 1544 1545 1546 1546 1547 1548 1548 1549 1550 1550 1551 1551 1551 1551 1552 1552 1553 1553 1553 1554 1554 1555 1555 1555 1555 1556 1557 1558 1559 1559 1560 1560 1559 1559 1559 1560 1559 1559 1559 1558 1558 1559 1558 1559 1559 1558 1558 1559 1558 1559 1560 1560 1560 1561 1561 1561 1562 1562 1562 1562 1562
1516 1517 1519 1520 1522 1523 1525 1526 1528 1529 1530 1532 1533 1535 1536 1537 1538 1539 1540 1541 1542 1543 1543 1544 1545 1546 1546 1547 1548 1548 1549 1550 1550 1551 1552 1552 1552 1552 1553 1553 1554 1554 1555 1555 1555 1556 1556 1556 1556 1557 1559 1560 1560 1561 1561 1561 1561 1560 1560 1560 1560 1560 1559 1559 1559 1559 1560 1560 1560 1560 1560 1560 1560 1561 1561 1562 1562 1562 1563 1563 1563 1562 1563 1563 1563
1516 1518 1520 1521 1522 1524 1526 1527 1529 1530 1531 1533 1534 1536 1537 1538 1539 1540 1540 1542 1542 1543 1544 1544 1545 1546 1546 1547 1548 1549 1549 1550 1551 1552 1552 1553 1553 1553 1554 1554 1555 1556 1556 1556 1557 1557 1557 1557 1557 1558 1560 1561 1562 1562 1562 1562 1562 1561 1561 1561 1561 1560 1560 1560 1560 1561 1561 1561 1561 1561 1561 1561 1561 1562 1563 1563 1563 1563 1563 1563 1563 1563 1564 1564 1564
1517 1519 1521 1522 1523 1525 1527 1528 1529 1531 1532 1534 1535 1536 1537 1538 1539 1540 1541 1542 1543 1544 1544 1545 1545 1546 1547 1548 1548 1549 1550 1550 1551 1552 1553 1554 1554 1555 1555 1555 1556 1557 1557 1558 1558 1558 1558 1558 1559 1560 1561 1563 1563 1563 1563 1563 1563 1563 1562 1562 1562 1561 1561 1561 1562 1562 1562 1563 1563 1563 1563 1562 1563 1563 1563 1563 1564 1564 1564 1564 1564 1565 1565 1565 1565
1519 1520 1522 1523 1524 1526 1527 1529 1530 1531 1533 1534 1535 1537 1538 1539 1540 1540 1541 1542 1543 1544 1544 1545 1546 1547 1547 1548 1549 1549 1550 1550 1551 1552 1553 1554 1555 1555 1556 1556 1557 1558 1558 1559 1559 1559 1559 1559 1560 1561 1563 1564 1564 1564 1564 1564 1564 1564 1564 1564 1563 1563 1562 1563 1563 1563 1564 1564 1565 1565 1564 1564 1564 1564 1565 1565 1565 1565 1565 1565 1566 1566 1566 1566 1566
1520 1521 1522 1523 1525 1526 1527 1529 1530 1531 1533 1535 1536 1537 1538 1539 1540 1541 1541 1542 1543 1544 1545 1546 1546 1547 1548 1548 1549 1550 1550 1551 1552 1552 1553 1554 1555 1556 1557 1557 1558 1559 1560 1560 1560 1560 1560 1560 1561 1562 1564 1565 1565 1565 1565 1566 1566 1565 1565 1565 1565 1564 1564 1564 1565 1565 1566 1566 1567 1567 1566 1566 1566 1566 1566 1566 1566 1566 1567 1567 1567 1568 1568 1568 1568
1520 1521 1522 1523 1525 1526 1527 1529 1530 1532 1533 1535 1537 1538 1539 1539 1540 1541 1542 1543 1544 1545 1545 1546 1547 1547 1548 1549 1550 1550 1551 1552 1552 1553 1554 1555 1556 1556 1557 1558 1559 1559 1560 1561 1561 1561 1561 1561 1562 1564 1565 1566 1567 1567 1567 1567 1567 1567 1567 1566 1566 1566 1566 1566 1567 1567 1568 1568 1569 1569 1569 1569 1569 1568 1568 1568 1568 1568 1569 1569 1569 1569 1569 1569 1569
1521 1522 1522 1523 1525 1526 1527 1529 1530 1532 1533 1535 1537 1538 1539 1540 1541 1541 1542 1543 1544 1545 1546 1546 1547 1548 1548 1549 1550 1551 1551 1552 1553 1554 1555 1555 1556 1557 1557 1559 1559 1560 1561 1561 1562 1562 1562 1562 1563 1565 1566 1567 1568 1568 1568 1569 1569 1568 1568 1568 1568 1567 1567 1568 1568 1569 1569 1570 1570 1571 1571 1571 1571 1571 1571 1571 1571 1571 1571 1571 1571 1571 1571 1571 1571
1521 1522 1522 1523 1525 1527 1528 1529 1531 1532 1534 1535 1537 1538 1539 1540 1541 1542 1543 1544 1545 1546 1546 1547 1547 1548 1549 1550 1551 1551 1552 1553 1554 1554 1555 1556 1557 1557 1558 1559 1560 1560 1561 1562 1563 1563 1563 1564 1564 1565 1567 1568 1569 1569 1570 1570 1570 1570 1569 1569 1569 1569 1569 1569 1570 1570 1571 1571 1572 1572 1572 1572 1573 1573 1573 1573 1573 1573 1572 1572 1572 1572 1572 1572 1572
1520 1521 1522 1523 1525 1527 1528 1530 1531 1533 1534 1536 1537 1538 1540 1541 1542 1543 1544 1545 1546 1546 1547 1547 1548 1548 1549 1550 1551 1552 1553 1554 1554 1555 1556 1557 1557 1558 1558 1559 1560 1561 1562 1563 1563 1563 1564 1565 1565 1566 1567 1568 1570 1570 1571 1571 1571 1571 1571 1571 1570 1570 1570 1570 1571 1571 1572 1572 1573 1573 1573 1573 1574 1574 1574 1574 1574 1574 1574 1574 1574 1574 1573 1573 1573
1520 1522 1523 1524 1526 1527 1529 1530 1532 1533 1534 1535 1537 1538 1539 1540 1541 1543 1544 1545 1546 1547 1547 1548 1548 1548 1549 1550 1551 1551 1553 1554 1555 1556 1556 1557 1558 1558 1559 1560 1561 1561 1562 1563 1564 1564 1564 1565 1566 1567 1568 1569 1570 1571 1571 1572 1572 1572 1572 1572 1572 1572 1572 1572 1572 1572 1573 1573 1574 1574 1574 1574 1574 1574 1575 1575 1575 1575 1575 1575 1575 1575 1574 1574 1574
1521 1523 1524 1525 1526 1527 1529 1530 1531 1532 1533 1534 1536 1537 1538 1539 1540 1542 1543 1544 1546 1546 1547 1548 1548 1549 1549 1550 1551 1552 1553 1554 1555 1556 1557 1558 1559 1559 1559 1561 1561 1562 1563 1563 1564 1565 1565 1566 1567 1568 1569 1570 1571 1571 1572 1572 1573 1573 1573 1574 1574 1573 1573 1573 1573 1573 1574 1574 1574 1575 1575 1575 1575 1575 1575 1576 1576 1576 1576 1576 1576 1575 1575 1575 1575
1522 1523 1524 1525 1526 1526 1528 1529 1530 1531 1532 1534 1535 1536 1537 1538 1539 1541 1542 1544 1545 1546 1547 1548 1549 1549 1550 1550 1551 1552 1553 1554 1555 1556 1557 1558 1559 1560 1560 1561 1562 1563 1563 1564 1565 1565 1566 1566 1567 1568 1569 1570 1571 1572 1572 1573 1574 1574 1574 1574 1575 1574 1574 1574 1574 1574 1575 1575 1575 1575 1576 1576 1576 1576 1576 1576 1576 1577 1577 1577 1576 1576 1576 1576 1576
1519 1521 1522 1524 1525 1525 1526 1528 1530 1531 1531 1533 1534 1535 1536 1537 1539 1540 1542 1543 1545 1546 1547 1548 1549 1550 1551 1551 1551 1552 1553 1554 1555 1556 1557 1558 1559 1560 1561 1562 1563 1563 1564 1565 1565 1566 1566 1567 1568 1569 1569 1570 1571 1572 1573 1573 1574 1574 1574 1575 1575 1575 1575 1575 1575 1575 1575 1576 1576 1576 1576 1576 1576 1576 1577 1577 1577 1577 1577 1577 1577 1577 1577 1577 1577
1516 1518 1520 1522 1523 1524 1525 1527 1529 1530 1531 1532 1533 1534 1535 1537 1538 1540 1542 1543 1544 1545 1547 1548 1549 1550 1551 1551 1552 1552 1553 1553 1555 1556 1557 1558 1559 1560 1561 1562 1563 1564 1564 1565 1565 1566 1567 1567 1568 1569 1569 1570 1571 1572 1573 1574 1575 1575 1575 1575 1575 1576 1576 1576 1576 1576 1576 1576 1576 1576 1577 1577 1577 1577 1577 1577 1577 1578 1578 1578 1578 1578 1578 1578 1577
1517 1518 1518 1520 1521 1523 1524 1526 1528 1529 1530 1531 1532 1533 1535 1536 1537 1539 1540 1542 1543 1544 1546 1547 1548 1549 1550 1551 1551 1552 1552 1552 1554 1555 1556 1558 1559 1560 1561 1562 1563 1564 1565 1565 1566 1566 1567 1568 1569 1570 1570 1571 1572 1573 1573 1574 1575 1575 1576 1576 1576 1576 1576 1576 1576 1577 1577 1577 1577 1577 1577 1577 1577 1578 1578 1578 1578 1578 1578 1578 1579 1579 1579 1578 1578
1517 1518 1519 1519 1520 1522 1523 1525 1527 1528 1529 1530 1531 1532 1534 1535 1536 1537 1538 1539 1541 1542 1543 1545 1546 1548 1549 1550 1551 1551 1551 1551 1552 1554 1555 1557 1558 1559 1561 1562 1563 1564 1565 1566 1566 1566 1567 1568 1569 1570 1570 1571 1572 1573 1574 1574 1575 1576 1576 1577 1577 1577 1577 1577 1577 1577 1577 1577 1577 1577 1577 1577 1578 1578 1578 1578 1578 1579 1579 1579 1579 1580 1580 1579 1579
1516 1517 1518 1520 1521 1522 1523 1524 1525 1526 1528 1528 1530 1531 1532 1533 1534 1535 1536 1537 1538 1539 1541 1542 1544 1546 1548 1549 1550 1551 1551 1551 1551 1552 1554 1555 1556 1558 1560 1561 1562 1564 1565 1566 1566 1567 1567 1568 1570 1570 1571 1572 1572 1573 1574 1575 1575 1576 1577 1577 1578 1578 1578 1578 1578 1578 1578 1577 1577 1577 1577 1578 1578 1578 1578 1579 1579 1579 1580 1580 1580 1581 1581 1580 1580
1515 1516 1517 1519 1521 1522 1523 1523 1524 1525 1526 1527 1528 1529 1530 1532 1532 1533 1534 1536 1537 1539 1540 1541 1542 1544 1546 1548 1549 1550 1551 1550 1550 1551 1552 1554 1555 1557 1558 1560 1562 1563 1564 1565 1566 1567 1567 1569 1570 1571 1571 1572 1573 1574 1574 1575 1576 1576 1577 1578 1578 1578 1578 1578 1578 1578 1578 1578 1578 1578 1578 1578 1578 1579 1579 1579 1580 1580 1580 1581 1581 1582 1582 1582 1582
1515 1516 1517 1518 1520 1521 1522 1522 1523 1523 1524 1525 1526 1527 1529 1530 1531 1532 1533 1535 1536 1538 1539 1539 1540 1542 1544 1546 1548 1549 1550 1549 1549 1550 1551 1553 1554 1555 1557 1559 1561 1562 1564 1565 1566 1566 1568 1569 1570 1571 1571 1572 1573 1574 1574 1575 1576 1577 1577 1578 1578 1579 1579 1579 1579 1579 1579 1579 1578 1578 1578 1578 1579 1579 1579 1580 1580 1581 1581 1582 1582 1582 1583 1583 1583
1515 1516 1516 1517 1519 1520 1521 1521 1521 1522 1523 1523 1524 1525 1527 1528 1529 1530 1531 1533 1535 1537 1538 1538 1539 1541 1543 1545 1547 1548 1549 1549 1549 1549 1551 1552 1554 1555 1556 1558 1559 1561 1563 1564 1565 1566 1568 1569 1570 1571 1572 1572 1573 1574 1574 1575 1576 1577 1577 1578 1578 1579 1579 1579 1579 1580 1579 1579 1579 1579 1579 1579 1579 1579 1580 1580 1581 1581 1582 1582 1582 1583 1583 1583 1583
1515 1515 1516 1516 1518 1519 1520 1521 1521 1521 1522 1522 1523 1524 1526 1527 1528 1529 1530 1531 1534 1536 1537 1538 1538 1540 1542 1544 1546 1547 1548 1549 1549 1549 1550 1552 1554 1555 1556 1557 1558 1560 1562 1564 1565 1566 1567 1569 1570 1571 1571 1572 1573 1573 1574 1575 1576 1577 1577 1578 1578 1579 1579 1579 1580 1580 1580 1579 1579 1579 1580 1580 1580 1580 1580 1581 1581 1582 1582 1582 1583 1583 1584 1584 1584
1515 1515 1516 1516 1517 1518 1519 1520 1521 1521 1521 1522 1523 1524 1525 1527 1528 1529 1529 1530 1532 1534 1536 1538 1539 1540 1541 1543 1545 1546 1547 1548 1549 1550 1550 1551 1553 1554 1555 1556 1557 1559 1561 1563 1564 1566 1567 1568 1569 1570 1571 1572 1572 1573 1574 1575 1576 1576 1577 1578 1578 1579 1579 1579 1580 1580 1580 1580 1580 1580 1580 1580 1580 1581 1581 1581 1581 1582 1582 1583 1583 1584 1584 1584 1584
1515 1515 1515 1515 1516 1518 1518 1519 1520 1520 1521 1522 1522 1523 1525 1527 1527 1528 1528 1529 1530 1533 1535 1537 1538 1540 1541 1542 1543 1544 1545 1547 1548 1550 1550 1551 1552 1553 1554 1555 1556 1558 1560 1562 1564 1565 1567 1568 1569 1570 1571 1572 1572 1573 1574 1575 1575 1576 1577 1578 1578 1579 1579 1579 1580 1580 1580 1580 1580 1580 1581 1581 1581 1581 1581 1582 1582 1582 1583 1583 1584 1584 1585 1585 1585
1515 1515 1514 1515 1516 1517 1519 1519 1520 1520 1521 1521 1521 1523 1525 1527 1527 1528 1528 1528 1529 1531 1533 1535 1537 1539 1541 1542 1542 1543 1544 1545 1547 1549 1550 1551 1552 1552 1553 1554 1555 1557 1559 1561 1563 1565 1566 1568 1569 1570 1571 1572 1572 1573 1574 1574 1575 1576 1576 1577 1578 1579 1579 1579 1580 1580 1580 1580 1580 1581 1581 1581 1582 1582 1582 1582 1582 1583 1583 1583 1584 1584 1585 1585 1585
1515 1515 1515 1515 1516 1517 1519 1519 1519 1519 1519 1520 1520 1522 1525 1526 1526 1527 1528 1528 1529 1530 1531 1534 1536 1539 1540 1542 1542 1543 1543 1545 1546 1548 1549 1551 1551 1552 1552 1553 1554 1556 1558 1560 1562 1564 1565 1567 1569 1570 1571 1571 1572 1572 1573 1574 1575 1575 1576 1577 1578 1578 1579 1579 1580 1581 1581 1581 1581 1581 1582 1582 1582 1582 1582 1583 1583 1583 1583 1584 1584 1585 1585 1585 1586
1515 1516 1516 1516 1516 1517 1518 1519 1518 1518 1519 1520 1520 1522 1524 1525 1526 1526 1527 1528 1528 1529 1530 1532 1534 1537 1539 1541 1542 1542 1543 1544 1546 1547 1549 1550 1551 1552 1552 1553 1553 1555 1557 1558 1560 1563 1564 1566 1568 1569 1570 1571 1571 1572 1572 1573 1574 1575 1576 1577 1577 1578 1579 1580 1580 1581 1581 1581 1581 1581 1582 1582 1583 1583 1583 1583 1583 1583 1583 1584 1584 1585 1585 1585 1586
1515 1516 1516 1516 1517 1517 1517 1518 1518 1518 1520 1520 1520 1521 1522 1523 1525 1526 1526 1527 1527 1528 1529 1530 1532 1535 1538 1540 1542 1542 1543 1544 1545 1546 1547 1549 1551 1552 1552 1553 1553 1554 1556 1557 1559 1561 1563 1565 1567 1568 1569 1570 1570 1571 1572 1573 1574 1574 1575 1576 1576 1577 1579 1580 1580 1581 1581 1581 1581 1581 1582 1583 1583 1583 1583 1583 1583 1583 1584 1584 1585 1585 1585 1586 1586
1515 1516 1516 1516 1517 1517 1517 1517 1518 1519 1519 1519 1520 1520 1521 1522 1524 1525 1526 1526 1527 1527 1528 1529 1531 1534 1536 1539 1540 1542 1542 1543 1545 1545 1546 1548 1549 1551 1552 1552 1553 1554 1555 1556 1557 1559 1561 1563 1565 1567 1568 1569 1569 1570 1571 1572 1573 1574 1575 1575 1576 1578 1579 1579 1580 1580 1581 1581 1581 1582 1582 1583 1583 1584 1584 1584 1584 1584 1584 1584 1585 1585 1586 1586 1586
1515 1515 1516 1516 1517 1517 1517 1518 1519 1519 1519 1519 1519 1520 1521 1522 1523 1523 1524 1525 1526 1526 1527 1529 1531 1533 1535 1537 1539 1541 1541 1543 1544 1544 1545 1547 1548 1550 1551 1552 1553 1554 1555 1556 1557 1558 1560 1562 1564 1565 1566 1567 1567 1568 1570 1571 1572 1574 1575 1575 1576 1578 1578 1579 1579 1580 1581 1581 1581 1582 1582 1583 1583 1584 1584 1584 1584 1584 1584 1585 1585 1586 1586 1586 1586
1514 1514 1515 1516 1517 1517 1517 1519 1520 1520 1520 1520 1520 1520 1521 1522 1522 1522 1522 1523 1525 1526 1527 1528 1530 1532 1534 1536 1538 1539 1540 1542 1542 1543 1544 1545 1547 1548 1550 1551 1552 1553 1555 1556 1557 1558 1559 1560 1562 1563 1563 1565 1566 1567 1569 1571 1572 1573 1575 1575 1576 1578 1578 1579 1579 1580 1581 1581 1581 1582 1582 1583 1583 1584 1584 1584 1584 1584 1585 1585 1586 1586 1586 1587 1587
1513 1514 1516 1516 1517 1518 1519 1521 1522 1522 1522 1522 1522 1522 1522 1522 1522 1523 1523 1524 1525 1525 1527 1528 1530 1531 1533 1534 1536 1537 1538 1540 1540 1541 1542 1544 1545 1546 1548 1549 1551 1552 1554 1555 1557 1557 1558 1559 1560 1562 1562 1564 1565 1566 1568 1569 1571 1572 1573 1575 1576 1577 1578 1578 1579 1580 1580 1581 1581 1581 1582 1582 1583 1583 1584 1584 1584 1585 1585 1586 1586 1586 1587 1587 1587
1514 1515 1516 1517 1518 1519 1521 1523 1524 1524 1525 1524 1524 1523 1523 1523 1523 1524 1524 1525 1526 1526 1528 1529 1530 1531 1531 1533 1534 1535 1537 1538 1539 1539 1541 1542 1543 1544 1546 1548 1549 1551 1552 1554 1555 1556 1556 1557 1559 1560 1562 1563 1564 1565 1567 1568 1570 1571 1573 1574 1574 1575 1576 1578 1579 1579 1579 1580 1581 1581 1581 1582 1582 1583 1584 1584 1584 1585 1586 1586 1586 1587 1587 1587 1588
1514 1515 1515 1517 1518 1520 1522 1524 1525 1527 1527 1527 1527 1526 1525 1525 1524 1525 1526 1526 1526 1527 1528 1529 1530 1530 1530 1531 1533 1534 1535 1536 1537 1538 1539 1540 1541 1542 1544 1546 1547 1549 1551 1552 1553 1554 1554 1555 1557 1559 1560 1561 1563 1564 1566 1567 1569 1570 1571 1572 1573 1574 1575 1576 1577 1579 1579 1580 1580 1581 1581 1581 1582 1583 1583 1584 1584 1585 1586 1586 1586 1587 1587 1588 1588
1514 1515 1515 1517 1518 1520 1522 1524 1526 1527 1528 1528 1527 1527 1526 1526 1526 1526 1527 1527 1526 1527 1528 1528 1529 1529 1529 1530 1532 1532 1533 1533 1535 1536 1537 1539 1540 1540 1542 1543 1545 1547 1548 1550 1551 1553 1553 1554 1556 1557 1559 1560 1561 1563 1564 1566 1567 1569 1570 1571 1572 1573 1573 1574 1576 1577 1578 1579 1580 1580 1580 1581 1582 1582 1583 1584 1584 1585 1585 1586 1586 1587 1587 1588 1588
1514 1515 1516 1518 1520 1522 1523 1524 1525 1527 1527 1527 1526 1525 1525 1525 1526 1527 1527 1526 1526 1526 1527 1528 1529 1529 1528 1529 1530 1530 1531 1531 1532 1534 1535 1536 1538 1539 1540 1541 1543 1545 1546 1548 1550 1551 1552 1553 1555 1556 1558 1559 1560 1562 1563 1564 1566 1568 1569 1569 1570 1570 1571 1572 1574 1576 1577 1578 1579 1579 1580 1581 1581 1582 1583 1584 1584 1584 1585 1586 1586 1587 1587 1588 1588
1515 1516 1517 1518 1519 1521 1522 1523 1524 1525 1524 1523 1523 1523 1524 1524 1526 1526 1526 1526 1526 1526 1527 1527 1528 1528 1528 1529 1528 1528 1529 1529 1530 1531 1532 1533 1535 1537 1539 1540 1541 1543 1545 1547 1548 1550 1550 1551 1553 1554 1556 1557 1558 1560 1561 1563 1564 1565 1567 1568 1569 1569 1569 1570 1572 1573 1575 1576 1577 1578 1579 1580 1581 1581 1583 1583 1584 1584 1585 1585 1586 1586 1587 1588 1588
1516 1517 1518 1519 1519 1520 1520 1522 1523 1522 1521 1520 1520 1521 1522 1524 1525 1525 1525 1526 1527 1528 1528 1527 1527 1527 1527 1527 1526 1526 1528 1528 1528 1528 1529 1531 1533 1535 1538 1539 1540 1541 1543 1545 1546 1548 1548 1549 1551 1553 1554 1555 1556 1558 1559 1561 1562 1563 1565 1566 1567 1568 1569 1569 1570 1572 1572 1574 1575 1577 1578 1579 1580 1581 1582 1583 1584 1584 1585 1585 1585 1586 1587 1587 1588
1516 1517 1519 1519 1519 1519 1519 1521 1522 1520 1519 1519 1518 1519 1521 1523 1524 1524 1524 1524 1524 1525 1526 1525 1524 1525 1525 1525 1524 1525 1526 1527 1526 1527 1528 1529 1531 1533 1536 1538 1538 1539 1541 1542 1544 1546 1546 1547 1549 1550 1551 1553 1554 1556 1557 1559 1561 1562 1563 1564 1565 1567 1568 1568 1569 1571 1572 1573 1574 1575 1576 1578 1578 1580 1581 1582 1583 1584 1584 1584 1585 1586 1586 1587 1587
1516 1518 1519 1518 1517 1516 1517 1518 1519 1518 1517 1516 1515 1517 1520 1522 1522 1522 1521 1519 1520 1521 1522 1522 1522 1522 1522 1522 1522 1523 1524 1525 1525 1525 1526 1527 1529 1531 1533 1535 1536 1538 1540 1540 1542 1543 1543 1544 1547 1548 1550 1551 1553 1554 1556 1558 1560 1561 1562 1563 1564 1565 1566 1567 1568 1569 1571 1572 1573 1574 1575 1576 1577 1579 1580 1581 1582 1583 1583 1584 1584 1585 1586 1586 1587
1515 1517 1517 1516 1515 1515 1515 1515 1515 1515 1513 1513 1514 1516 1518 1518 1518 1518 1517 1516 1518 1519 1519 1519 1519 1519 1519 1519 1519 1520 1521 1522 1522 1523 1525 1527 1528 1529 1531 1533 1534 1536 1538 1538 1540 1540 1540 1541 1545 1547 1548 1550 1551 1553 1555 1557 1558 1560 1561 1562 1563 1564 1565 1566 1567 1568 1569 1571 1572 1573 1574 1576 1577 1578 1580 1580 1581 1582 1582 1583 1584 1584 1585 1586 1586